Tracking 17631 objects as of 5-May-2016
HD Live streaming from Space Station
objects crossing your sky now

COSMOS 2286

Track COSMOS 2286 now!
COSMOS 2286 is classified as:


NORAD ID: 23194
Int'l Code: 1994-048A
Perigee: 3,747.4 km
Apogee: 36,731.1 km
Inclination: 67.6 °
Period: 720.0 minutes
Semi major axis: 26610 km
RCS: 14.1879 m2 (large)
Launch date: August 5, 1994
Source: Commonwealth of Independent States (former USSR) (CIS)
Launch site: PLESETSK MISSILE AND SPACE COMPLEX (PKMTR)
Your satellite tracking list
Your tracking list is empty





NASA's NSSDC Master Catalog

Two Line Element Set (TLE):
1 23194U 94048A   16126.02840008  .00000304  00000-0  00000+0 0  9998
2 23194  67.6459  38.7880 6197558 189.6519 148.2903  2.00826747159347
Source of the keplerian elements: AFSPC

N2YO: 386